リニア彗星

C/2003 K4 ( LINEAR )

English version
Home page
Updated on June 9, 2013

---------------------------------------------------------------------

・ プロフィール

発見日 2003年5月28日
発見光度 17.6等
発見者 Lincoln Laboratory Near-Earth Asteroid Research project

・ 写真集

・ 軌道要素

The following orbital elements are taken from MPC 52315: 

Epoch 2004 Oct. 2.0 TT = JDT 2453280.5
T 2004 Oct. 13.7154 TT                                  MPC
q   1.023621             (2000.0)            P               Q
z  -0.000352       Peri.  198.4401      -0.9693859      +0.0876852
 +/-0.000000       Node    18.6752      +0.0032790      +0.9386026
e   1.000360       Incl.  134.2527      -0.2455203      -0.3336712
From 2244 observations 2003 May 28-2004 July 9, mean residual 0".5.

・ 星図

・ 光度変化

        m1 = 5.0 + 5 logΔ + 10.0 log r  [    ,-150]  (              〜2004年 5月16日)
        m1 = 0.0 + 5 logΔ + 22.5 log r  [-150,-100]  (2004年 5月16日〜2004年 7月 5日)
        m1 = 4.4 + 5 logΔ +  6.5 log r  [-100, -20]  (2004年 7月 5日〜2004年 9月23日)
        m1 = 5.2 + 5 logΔ +  8.0 log r  [ -20, 200]  (2004年 9月23日〜2005年 5月 1日)
        m1 = 4.2 + 5 logΔ + 10.0 log r  [ 200,    ]  (2005年 5月 1日〜              )

        ※ 灰色の曲線は、m1 = 5.0 + 5 logΔ + 10.0 log r の光度曲線です。

---------------------------------------------------------------------

軌道要素はMPCのEphemerides and Orbital Elementsに掲載されたものです。
星図は StellaNavigator Ver.2.0 for Windows (アストロアーツ 編著 / アスキー出版局刊) で作成したものです。
光度グラフはComet for Windowsで作成したものです。

---------------------------------------------------------------------

Copyright(C) Seiichi Yoshida (comet@aerith.net). All rights reserved.